GW5875 Weather Reports


time (UTC)temp
C
wind
direction
speed
KPH
gust
KPH
rain 1hr
cm
rain 24hr
cm
rain mn
cm
humidity
%
barometer
mb
20260510045128 15 145 0.0 0.0 0.00 0.00 0.00 96 1012.0
20260510044625 15 145 0.0 0.0 0.00 0.00 0.00 96 1012.0
20260510044122 15 145 0.0 0.0 0.00 0.00 0.00 95 1011.8
20260510043618 15 145 0.0 0.0 0.00 0.00 0.00 95 1011.8
20260510043114 15 145 0.0 0.0 0.00 0.00 0.00 95 1011.8
20260510042612 15 145 0.0 0.0 0.00 0.00 0.00 95 1012.0
20260510042108 15 145 0.0 0.0 0.00 0.00 0.00 95 1011.9
20260510041606 15 145 0.0 0.0 0.00 0.00 0.00 95 1011.7
20260510041103 15 145 0.0 0.0 0.00 0.00 0.00 95 1011.7
20260510040559 15 146 0.0 0.0 0.00 0.00 0.00 94 1011.7
20260510040055 15 146 0.0 0.0 0.00 0.00 0.00 94 1011.8
20260510035552 15 146 0.0 0.0 0.00 0.00 0.00 94 1011.6
20260510035051 15 146 0.0 0.0 0.00 0.00 0.00 94 1011.8
20260510034550 15 146 0.0 0.0 0.00 0.00 0.00 93 1011.8
20260510034047 15 146 0.0 0.0 0.00 0.00 0.00 93 1011.6
20260510033542 16 146 0.0 0.0 0.00 0.00 0.00 93 1011.7
20260510033041 16 146 0.0 0.0 0.00 0.00 0.00 93 1011.6
20260510032537 16 146 0.0 0.0 0.00 0.00 0.00 93 1011.6
20260510032032 16 146 0.0 0.0 0.00 0.00 0.00 93 1011.6
20260510031527 16 146 0.0 0.0 0.00 0.00 0.00 92 1011.6
20260510031023 16 146 0.0 0.0 0.00 0.00 0.00 92 1011.4
20260510030519 16 146 0.0 0.0 0.00 0.00 0.00 92 1011.3
20260510030017 16 145 0.0 0.0 0.00 0.00 0.00 91 1011.3
20260510025513 16 145 0.0 0.0 0.00 0.00 0.00 90 1011.4
20260510025011 16 145 0.0 0.0 0.00 0.00 0.00 89 1011.2
20260510024508 17 146 0.0 0.0 0.00 0.00 0.00 89 1011.1
20260510024004 17 146 0.0 0.0 0.00 0.00 0.00 88 1011.0
20260510023500 17 146 0.0 0.0 0.00 0.00 0.00 87 1011.1
20260510022957 17 146 0.0 0.0 0.00 0.00 0.00 87 1010.8
20260510022456 17 146 0.0 0.0 0.00 0.00 0.00 86 1010.6
20260510021955 17 145 0.0 0.0 0.00 0.00 0.00 85 1010.8
20260510021453 17 146 0.0 0.0 0.00 0.00 0.00 85 1010.8
20260510020950 18 145 0.0 0.0 0.00 0.00 0.00 84 1010.7
20260510020444 18 146 0.0 0.0 0.00 0.00 0.00 83 1010.8
20260510015940 18 145 0.0 0.0 0.00 0.00 0.00 82 1010.2
20260510015436 18 145 0.0 0.0 0.00 0.00 0.00 82 1010.6
20260510014931 18 146 0.0 0.0 0.00 0.00 0.00 82 1010.3
20260510014429 18 146 0.0 0.0 0.00 0.00 0.00 80 1010.3
20260510013926 19 145 0.0 0.0 0.00 0.00 0.00 78 1010.3
20260510013420 19 145 0.0 0.0 0.00 0.00 0.00 78 1010.2
20260510012916 20 145 0.0 0.0 0.00 0.00 0.00 77 1010.2
20260510012411 20 145 0.0 0.0 0.00 0.00 0.00 76 1009.9
20260510011906 20 145 0.0 0.0 0.00 0.00 0.00 75 1009.9
20260510011401 20 145 0.0 0.0 0.00 0.00 0.00 74 1010.1
20260510010858 21 146 0.0 0.0 0.00 0.00 0.00 71 1010.1
20260510010355 21 146 0.0 0.0 0.00 0.00 0.00 70 1009.9
20260510005852 22 146 0.0 0.0 0.00 0.00 0.00 68 1010.0
20260510005348 22 145 0.0 0.0 0.00 0.00 0.00 66 1010.0
20260510004846 22 145 0.0 0.0 0.00 0.00 0.00 64 1009.7
20260510004343 23 145 0.0 0.0 0.00 0.00 0.00 62 1009.6
20260510003841 23 148 0.0 0.0 0.00 0.00 0.00 60 1009.6
20260510003338 24 148 0.0 0.0 0.00 0.00 0.00 58 1009.7
20260510002836 25 147 0.0 0.0 0.00 0.00 0.00 57 1009.5
20260510002333 25 148 0.0 0.0 0.00 0.00 0.00 55 1009.6
20260510001830 25 147 0.0 0.0 0.00 0.00 0.00 53 1009.5
20260510001328 25 150 0.0 0.0 0.00 0.00 0.00 51 1009.5
20260510000824 26 137 1.6 1.6 0.00 0.00 0.00 51 1009.4
20260510000322 26 128 1.6 1.6 0.00 0.00 0.00 50 1009.5
20260509235819 26 149 0.0 0.0 0.00 0.00 0.00 51 1009.3
20260509235315 26 140 0.0 0.0 0.00 0.00 0.00 50 1009.3
20260509234811 26 134 1.6 1.6 0.00 0.00 0.00 50 1009.4
20260509234308 26 116 3.2 4.8 0.00 0.00 0.00 50 1009.4
20260509233806 26 144 1.6 1.6 0.00 0.00 0.00 51 1009.4
20260509233303 27 135 3.2 4.8 0.00 0.00 0.00 49 1009.2
20260509232759 27 157 0.0 1.6 0.00 0.00 0.00 50 1009.3
20260509232257 26 134 1.6 1.6 0.00 0.00 0.00 48 1009.5
20260509231753 26 70 8.0 9.7 0.00 0.00 0.00 49 1009.3
20260509231250 27 88 4.8 6.4 0.00 0.00 0.00 49 1009.5
20260509230748 26 140 4.8 6.4 0.00 0.00 0.00 49 1009.5
20260509230244 26 147 0.0 0.0 0.00 0.00 0.00 51 1009.2
20260509225739 26 152 0.0 0.0 0.00 0.00 0.00 54 1009.2
20260509225236 26 152 1.6 4.8 0.00 0.00 0.00 52 1009.1
20260509224731 27 127 4.8 6.4 0.00 0.00 0.00 49 1009.1
20260509224229 26 65 3.2 4.8 0.00 0.00 0.00 52 1009.2
20260509223725 26 123 1.6 1.6 0.00 0.00 0.00 52 1009.1
20260509223222 27 51 11.3 12.9 0.00 0.00 0.00 49 1009.1
20260509222719 27 65 6.4 8.0 0.00 0.00 0.00 50 1009.2
20260509222214 27 41 3.2 8.0 0.00 0.00 0.00 50 1009.0
20260509221711 28 138 1.6 1.6 0.00 0.00 0.00 50 1009.0
20260509221207 28 144 3.2 4.8 0.00 0.00 0.00 48 1008.8
20260509220703 28 143 1.6 1.6 0.00 0.00 0.00 48 1008.9
20260509220159 28 115 1.6 1.6 0.00 0.00 0.00 47 1008.8
20260509215655 28 161 0.0 1.6 0.00 0.00 0.00 50 1008.8
20260509215152 27 144 3.2 4.8 0.00 0.00 0.00 50 1008.8
20260509214649 27 78 4.8 6.4 0.00 0.00 0.00 49 1008.9
20260509214146 27 138 3.2 4.8 0.00 0.00 0.00 51 1008.8
20260509213643 27 145 3.2 4.8 0.00 0.00 0.00 53 1008.6
20260509213138 26 166 1.6 1.6 0.00 0.00 0.00 57 1008.9
20260509212636 26 135 0.0 1.6 0.00 0.00 0.00 58 1008.7
20260509212133 26 128 0.0 1.6 0.00 0.00 0.00 54 1009.1
20260509211629 27 79 3.2 4.8 0.00 0.00 0.00 53 1009.1
20260509211126 27 129 3.2 4.8 0.00 0.00 0.00 53 1009.0
20260509210623 28 113 3.2 4.8 0.00 0.00 0.00 50 1009.0
20260509210120 28 116 6.4 8.0 0.00 0.00 0.00 44 1009.0
20260509205614 28 82 6.4 8.0 0.00 0.00 0.00 45 1009.1
20260509205109 28 139 0.0 0.0 0.00 0.00 0.00 47 1009.1
20260509204605 28 156 0.0 0.0 0.00 0.00 0.00 53 1009.0
20260509204102 28 143 1.6 1.6 0.00 0.00 0.00 44 1008.9
20260509203558 28 103 6.4 8.0 0.00 0.00 0.00 37 1009.1
20260509203057 28 137 9.7 9.7 0.00 0.00 0.00 35 1009.3
20260509202556 28 155 4.8 6.4 0.00 0.00 0.00 38 1009.4
20260509202052 28 106 6.4 9.7 0.00 0.00 0.00 38 1009.6
20260509201547 28 107 3.2 4.8 0.00 0.00 0.00 40 1009.8
20260509201045 28 170 1.6 1.6 0.00 0.00 0.00 40 1009.7
20260509200544 27 119 1.6 1.6 0.00 0.00 0.00 43 1009.9
20260509200042 28 74 9.7 9.7 0.00 0.00 0.00 37 1010.0
20260509195537 28 168 1.6 4.8 0.00 0.00 0.00 37 1009.7
20260509195037 28 129 1.6 1.6 0.00 0.00 0.00 38 1009.8
20260509194532 27 157 0.0 0.0 0.00 0.00 0.00 43 1009.8
20260509194030 27 87 4.8 6.4 0.00 0.00 0.00 39 1009.7
20260509193530 27 155 3.2 4.8 0.00 0.00 0.00 37 1009.8
20260509193027 27 105 4.8 6.4 0.00 0.00 0.00 43 1009.9
20260509192524 28 103 9.7 9.7 0.00 0.00 0.00 40 1009.7
20260509192019 28 290 6.4 6.4 0.00 0.00 0.00 37 1009.7
20260509191513 28 94 3.2 4.8 0.00 0.00 0.00 39 1010.0
20260509191009 28 283 3.2 4.8 0.00 0.00 0.00 44 1009.8
20260509190506 27 144 1.6 4.8 0.00 0.00 0.00 46 1009.7
20260509190005 27 154 0.0 1.6 0.00 0.00 0.00 40 1009.8
20260509185501 27 123 0.0 1.6 0.00 0.00 0.00 46 1010.2
20260509184958 27 161 4.8 6.4 0.00 0.00 0.00 43 1009.9
20260509184456 27 70 8.0 9.7 0.00 0.00 0.00 44 1010.1
20260509183952 27 140 1.6 1.6 0.00 0.00 0.00 45 1010.1
20260509183452 27 147 0.0 1.6 0.00 0.00 0.00 44 1010.1
20260509182949 27 250 4.8 4.8 0.00 0.00 0.00 43 1010.0
20260509182445 27 126 1.6 1.6 0.00 0.00 0.00 44 1010.1
20260509181943 27 136 0.0 1.6 0.00 0.00 0.00 48 1010.0
20260509181441 27 116 4.8 8.0 0.00 0.00 0.00 45 1010.3
20260509180939 27 140 4.8 6.4 0.00 0.00 0.00 48 1010.3
20260509180434 27 194 1.6 1.6 0.00 0.00 0.00 56 1010.3
20260509175931 26 193 6.4 8.0 0.00 0.00 0.00 52 1010.4
20260509175427 26 183 3.2 4.8 0.00 0.00 0.00 50 1010.2
20260509174923 26 75 4.8 8.0 0.00 0.00 0.00 49 1010.4
20260509174419 26 123 3.2 6.4 0.00 0.00 0.00 52 1010.3
20260509173916 26 96 4.8 6.4 0.00 0.00 0.00 52 1010.4
20260509173415 26 145 1.6 1.6 0.00 0.00 0.00 55 1010.6
20260509172912 26 169 3.2 4.8 0.00 0.00 0.00 60 1010.3
20260509172408 26 106 3.2 4.8 0.00 0.00 0.00 54 1010.4
20260509171904 26 128 3.2 4.8 0.00 0.00 0.00 55 1010.3
20260509171401 26 173 1.6 4.8 0.00 0.00 0.00 59 1010.7
20260509170857 26 154 0.0 1.6 0.00 0.00 0.00 59 1010.6
20260509170353 25 133 0.0 0.0 0.00 0.00 0.00 57 1010.7
20260509165848 25 274 4.8 6.4 0.00 0.00 0.00 61 1010.6
20260509165343 25 167 3.2 4.8 0.00 0.00 0.00 60 1010.4
20260509164838 25 287 9.7 9.7 0.00 0.00 0.00 58 1010.4
20260509164335 25 178 1.6 1.6 0.00 0.00 0.00 60 1010.4
20260509163831 25 171 3.2 6.4 0.00 0.00 0.00 61 1010.3
20260509163328 25 159 0.0 0.0 0.00 0.00 0.00 63 1010.3
20260509162828 25 289 6.4 9.7 0.00 0.00 0.00 61 1010.4
20260509162326 25 141 1.6 1.6 0.00 0.00 0.00 60 1010.3
20260509161822 25 165 0.0 0.0 0.00 0.00 0.00 62 1010.1
20260509161319 25 160 3.2 4.8 0.00 0.00 0.00 64 1010.4
20260509160814 25 130 0.0 0.0 0.00 0.00 0.00 64 1010.4
20260509160310 24 127 1.6 1.6 0.00 0.00 0.00 65 1010.2
20260509155806 24 162 0.0 0.0 0.00 0.00 0.00 65 1010.3
20260509155306 23 172 3.2 4.8 0.00 0.00 0.00 67 1010.3
20260509154759 23 208 3.2 4.8 0.00 0.00 0.00 68 1010.3
20260509154256 23 234 4.8 8.0 0.00 0.00 0.00 67 1010.3
20260509153753 23 143 3.2 4.8 0.00 0.00 0.00 67 1010.2
20260509153248 23 287 6.4 6.4 0.00 0.00 0.00 66 1010.1
20260509152746 23 247 6.4 6.4 0.00 0.00 0.00 67 1010.2
20260509152242 23 155 3.2 4.8 0.00 0.00 0.00 70 1010.2
20260509151739 23 151 1.6 1.6 0.00 0.00 0.00 67 1010.2
20260509151235 23 145 1.6 1.6 0.00 0.00 0.00 69 1010.1
20260509150734 22 226 4.8 6.4 0.00 0.00 0.00 71 1010.3
20260509150232 22 149 0.0 1.6 0.00 0.00 0.00 70 1010.7
20260509145728 23 234 3.2 4.8 0.00 0.00 0.00 71 1010.3
20260509145222 23 162 0.0 0.0 0.00 0.00 0.00 69 1010.4
20260509144719 22 164 0.0 0.0 0.00 0.00 0.00 72 1010.2
20260509144216 22 151 0.0 0.0 0.00 0.00 0.00 71 1010.6
20260509143714 22 169 0.0 0.0 0.00 0.00 0.00 74 1010.3
20260509143211 22 133 1.6 1.6 0.00 0.00 0.00 73 1010.7
20260509142706 21 160 0.0 0.0 0.00 0.00 0.00 73 1010.6
20260509142203 21 232 4.8 4.8 0.00 0.00 0.00 73 1010.9
20260509141659 21 167 1.6 1.6 0.00 0.00 0.00 74 1010.6
20260509141155 21 164 1.6 1.6 0.00 0.00 0.00 73 1010.7
20260509140652 21 179 3.2 4.8 0.00 0.00 0.00 73 1010.8
20260509140150 20 157 0.0 0.0 0.00 0.00 0.00 76 1010.9
20260509135647 20 163 1.6 1.6 0.00 0.00 0.00 77 1011.0
20260509135146 20 160 0.0 0.0 0.00 0.00 0.00 78 1010.7
20260509134641 20 160 0.0 0.0 0.00 0.00 0.00 79 1010.8
20260509134139 20 167 1.6 1.6 0.00 0.00 0.00 78 1010.8
20260509133636 19 159 0.0 0.0 0.00 0.00 0.00 81 1010.6
20260509133133 18 167 1.6 1.6 0.00 0.00 0.00 82 1010.7
20260509132631 18 156 0.0 0.0 0.00 0.00 0.00 83 1011.0
20260509132130 18 165 1.6 1.6 0.00 0.00 0.00 83 1010.7
20260509131625 18 177 0.0 1.6 0.00 0.00 0.00 82 1010.7
20260509131123 18 165 0.0 0.0 0.00 0.00 0.00 82 1010.8
20260509130618 18 162 0.0 0.0 0.00 0.00 0.00 85 1010.8
20260509130115 17 163 0.0 0.0 0.00 0.00 0.00 86 1010.7
20260509125611 17 162 0.0 0.0 0.00 0.00 0.00 86 1010.8
20260509125108 17 163 0.0 0.0 0.00 0.00 0.00 89 1010.6
20260509124604 16 154 0.0 0.0 0.00 0.00 0.00 94 1010.6
20260509124102 15 147 0.0 0.0 0.00 0.00 0.00 97 1010.4
20260509123600 15 160 0.0 0.0 0.00 0.00 0.00 97 1010.6
20260509123056 15 160 0.0 0.0 0.00 0.00 0.00 97 1010.3
20260509122552 14 160 0.0 0.0 0.00 0.00 0.00 97 1010.2
20260509122050 13 160 0.0 0.0 0.00 0.00 0.00 98 1010.2
20260509121546 13 160 0.0 0.0 0.00 0.00 0.00 98 1010.2
20260509121048 13 168 0.0 0.0 0.00 0.00 0.00 98 1010.0
20260509120542 12 147 0.0 0.0 0.00 0.00 0.00 98 1010.2
20260509120040 12 147 0.0 0.0 0.00 0.00 0.00 98 1010.1
20260509115536 12 147 0.0 0.0 0.00 0.00 0.00 98 1009.8
20260509115034 12 147 0.0 0.0 0.00 0.00 0.00 98 1009.8
20260509114532 12 147 0.0 0.0 0.00 0.00 0.00 98 1009.6
20260509114031 12 147 0.0 0.0 0.00 0.00 0.00 98 1009.9
20260509113528 12 147 0.0 0.0 0.00 0.00 0.00 98 1009.6
20260509113026 12 147 0.0 0.0 0.00 0.00 0.00 98 1009.7
20260509112522 12 147 0.0 0.0 0.00 0.00 0.00 98 1009.6
20260509112019 12 147 0.0 0.0 0.00 0.00 0.00 98 1009.6
20260509111517 12 147 0.0 0.0 0.00 0.00 0.00 98 1009.3
20260509111014 12 147 0.0 0.0 0.00 0.00 0.00 98 1009.1
20260509110510 12 147 0.0 0.0 0.00 0.00 0.00 98 1009.1
20260509110007 12 147 0.0 0.0 0.00 0.00 0.00 98 1009.3
20260509105506 12 147 0.0 0.0 0.00 0.00 0.00 98 1009.0
20260509105003 12 147 0.0 0.0 0.00 0.00 0.00 98 1009.0
20260509104459 12 147 0.0 0.0 0.00 0.00 0.00 97 1008.9
20260509103957 12 147 0.0 0.0 0.00 0.00 0.00 97 1008.8
20260509103454 12 147 0.0 0.0 0.00 0.00 0.00 97 1008.8
20260509102952 12 146 0.0 0.0 0.00 0.00 0.00 97 1008.8
20260509102449 12 147 0.0 0.0 0.00 0.00 0.00 97 1008.9
20260509101945 12 148 0.0 0.0 0.00 0.00 0.00 97 1008.7
20260509101442 12 148 0.0 0.0 0.00 0.00 0.00 97 1008.6
20260509100939 12 148 0.0 0.0 0.00 0.00 0.00 97 1008.7
20260509100436 12 139 0.0 0.0 0.00 0.00 0.00 97 1008.7
20260509095933 12 138 0.0 0.0 0.00 0.00 0.00 97 1008.4
20260509095430 12 138 0.0 0.0 0.00 0.00 0.00 97 1008.6
20260509094927 12 138 0.0 0.0 0.00 0.00 0.00 97 1008.5
20260509094423 12 138 0.0 0.0 0.00 0.00 0.00 97 1008.5
20260509093921 12 138 0.0 0.0 0.00 0.00 0.00 97 1008.7
20260509093418 12 136 0.0 0.0 0.00 0.00 0.00 97 1009.0
20260509092917 12 144 0.0 0.0 0.00 0.00 0.00 96 1009.1
20260509092414 13 148 0.0 0.0 0.00 0.00 0.00 96 1009.0
20260509091913 13 148 0.0 0.0 0.00 0.00 0.00 96 1009.1
20260509091409 12 140 0.0 0.0 0.00 0.00 0.00 96 1008.9
20260509090907 12 140 0.0 0.0 0.00 0.00 0.00 96 1008.9
20260509090403 12 132 0.0 0.0 0.00 0.00 0.00 96 1009.0
20260509085901 12 149 0.0 0.0 0.00 0.00 0.00 96 1008.8
20260509085358 12 157 0.0 0.0 0.00 0.00 0.00 96 1008.6
20260509084854 13 157 0.0 0.0 0.00 0.00 0.00 96 1008.5
20260509084351 13 157 0.0 0.0 0.00 0.00 0.00 95 1008.5
20260509083849 13 157 0.0 0.0 0.00 0.00 0.00 95 1008.5
20260509083346 13 155 0.0 0.0 0.00 0.00 0.00 95 1008.6
20260509082842 13 151 0.0 0.0 0.00 0.00 0.00 95 1008.5
20260509082339 13 154 0.0 0.0 0.00 0.00 0.00 95 1008.7
20260509081837 13 156 0.0 0.0 0.00 0.00 0.00 94 1008.6
20260509081333 13 148 0.0 0.0 0.00 0.00 0.00 94 1008.9
20260509080831 13 146 0.0 0.0 0.00 0.00 0.00 94 1009.0
20260509080329 13 134 0.0 0.0 0.00 0.00 0.00 94 1009.0
20260509075827 13 142 0.0 0.0 0.00 0.00 0.00 93 1009.1
20260509075324 13 158 0.0 0.0 0.00 0.00 0.00 93 1008.8
20260509074821 13 165 0.0 0.0 0.00 0.00 0.00 92 1009.0
20260509074319 13 163 0.0 0.0 0.00 0.00 0.00 91 1008.8
20260509073814 14 162 1.6 1.6 0.00 0.00 0.00 91 1008.9
20260509073311 14 165 0.0 0.0 0.00 0.00 0.00 90 1008.8
20260509072808 15 153 0.0 0.0 0.00 0.00 0.00 89 1008.8
20260509072306 15 147 0.0 0.0 0.00 0.00 0.00 88 1008.7
20260509071801 15 131 1.6 1.6 0.00 0.00 0.00 86 1008.8
20260509071258 15 146 0.0 0.0 0.00 0.00 0.00 85 1008.7
20260509070755 16 152 0.0 0.0 0.00 0.00 0.00 82 1008.9
20260509070251 16 182 1.6 1.6 0.00 0.00 0.00 83 1008.7
20260509065748 16 151 1.6 1.6 0.00 0.00 0.00 83 1009.0
20260509065244 16 153 0.0 0.0 0.00 0.00 0.00 82 1008.6
20260509064741 16 182 1.6 1.6 0.00 0.00 0.00 83 1008.7
20260509064238 16 151 0.0 0.0 0.00 0.00 0.00 83 1008.7
20260509063736 16 147 0.0 0.0 0.00 0.00 0.00 82 1008.7
20260509063232 17 138 1.6 1.6 0.00 0.00 0.00 80 1008.3
20260509062729 17 170 0.0 1.6 0.00 0.00 0.00 79 1008.0
20260509062226 17 146 0.0 0.0 0.00 0.00 0.00 79 1008.3
20260509061723 17 183 3.2 4.8 0.00 0.00 0.00 78 1008.5
20260509061221 17 151 0.0 0.0 0.00 0.00 0.00 76 1008.3
20260509060718 17 195 3.2 4.8 0.00 0.00 0.00 77 1008.0
20260509060214 17 174 0.0 0.0 0.00 0.00 0.00 78 1008.1
20260509055710 17 286 4.8 6.4 0.00 0.00 0.00 78 1007.8
20260509055206 17 234 3.2 4.8 0.00 0.00 0.00 79 1008.1
20260509054703 17 163 0.0 1.6 0.00 0.00 0.00 80 1008.4
20260509054200 16 143 1.6 4.8 0.00 0.00 0.00 81 1008.4
20260509053658 16 90 1.6 4.8 0.00 0.00 0.00 84 1008.1
20260509053155 15 148 0.0 1.6 0.00 0.00 0.00 88 1008.3
20260509052653 15 141 0.0 1.6 0.00 0.00 0.00 91 1008.4
20260509052150 15 166 0.0 0.0 0.00 0.00 0.00 92 1008.6
20260509051648 14 149 0.0 0.0 0.00 0.00 0.00 92 1009.1
20260509051145 14 149 0.0 0.0 0.00 0.00 0.00 92 1009.4
20260509050642 14 151 0.0 0.0 0.00 0.00 0.00 92 1009.7
20260509050138 14 139 0.0 0.0 0.00 0.00 0.00 92 1009.5
20260509045636 14 135 0.0 0.0 0.00 0.00 0.00 91 1009.9